Malmstrom AFB, MT

3:16 PM MDT on August 20, 2017 (GMT -0600)
Malmstrom AFB

Weather History for KGFA - September, 2013

Change the Weather History Date:

Monday, September 23, 2013

  Actual Average (KGTF) Record (KGTF)
Temperature  
Mean Temperature 56 °F -  
Max Temperature 63 °F 69 °F 93 °F (1966)
Min Temperature 48 °F 40 °F 16 °F (2000)
Degree Days  
Heating Degree Days 10    
Growing Degree Days 6 (Base 50)    
Moisture  
Dew Point 32 °F    
Average Humidity 41    
Maximum Humidity 59    
Minimum Humidity 26    
Precipitation  
Precipitation 0.00 in - - ()
Sea Level Pressure  
Sea Level Pressure 29.83 in    
Wind  
Wind Speed 18 mph (SSW)    
Max Wind Speed 28 mph    
Max Gust Speed 39 mph    
Visibility 10 miles    
Events      
Averages and records for this station are not official NWS values.
T = Trace of Precipitation, MM = Missing Value Source: NWS Daily Summary

Daily Weather History Graph

Daily Weather History Graph

Search for Another Location

Airport or City:

Trip Planner

Search our weather history database for the weather conditions in past years. The results will help you decide how hot, cold, wet, or windy it might be!

Date:

Astronomy

Sep. 23, 2013 Rise Set
Actual Time 7:13 AM MDT 7:19 PM MDT
Civil Twilight 6:42 AM MDT 7:50 PM MDT
Nautical Twilight 6:06 AM MDT 8:26 PM MDT
Astronomical Twilight 5:29 AM MDT 9:03 PM MDT
Moon 9:34 PM MDT (9/23) 11:55 AM MDT (9/23)
Length of Visible Light 13h 07m
Length of Day
12h 06m
Waning Gibbous, 81% of the Moon is Illuminated
Sep 23
Waning Gibbous
Sep 26
Last Quarter
Oct 4
New
Oct 11
First Quarter
Oct 18
Full

Hourly Weather History & Observations

Time (MDT) Temp. Dew Point Humidity Pressure Visibility Wind Dir Wind Speed Gust Speed Precip Events Conditions
12:56 AM 54.0 °F 35.1 °F 49% 29.70 in 10.0 mi SSW 17.3 mph - N/A   Clear
1:56 AM 50.0 °F 35.1 °F 57% 29.72 in 10.0 mi South 11.5 mph - N/A   Clear
2:56 AM 48.9 °F 35.1 °F 59% 29.71 in 10.0 mi South 12.7 mph - N/A   Clear
3:56 AM 50.0 °F 36.0 °F 59% 29.72 in 10.0 mi South 16.1 mph - N/A   Clear
4:56 AM 51.1 °F 37.0 °F 59% 29.73 in 10.0 mi SSW 16.1 mph - N/A   Clear
5:56 AM 51.1 °F 37.0 °F 59% 29.75 in 10.0 mi South 13.8 mph 24.2 mph N/A   Clear
6:56 AM 53.1 °F 36.0 °F 52% 29.77 in 10.0 mi SSW 20.7 mph - N/A   Clear
7:56 AM 53.1 °F 35.1 °F 50% 29.80 in 10.0 mi SSW 21.9 mph 29.9 mph N/A   Clear
8:56 AM 55.0 °F 34.0 °F 45% 29.83 in 10.0 mi SSW 24.2 mph 32.2 mph N/A   Clear
9:56 AM 57.0 °F 34.0 °F 42% 29.82 in 10.0 mi SSW 25.3 mph 39.1 mph N/A   Clear
10:56 AM 60.1 °F 30.9 °F 33% 29.83 in 10.0 mi SSW 25.3 mph 31.1 mph N/A   Clear
11:56 AM 61.0 °F 30.0 °F 31% 29.86 in 10.0 mi SW 23.0 mph 34.5 mph N/A   Clear
12:56 PM 63.0 °F 27.0 °F 26% 29.84 in 10.0 mi SW 24.2 mph 38.0 mph N/A   Clear
1:56 PM 63.0 °F 27.0 °F 26% 29.86 in 10.0 mi SW 23.0 mph 27.6 mph N/A   Clear
2:56 PM 61.0 °F 27.0 °F 27% 29.86 in 10.0 mi SW 24.2 mph 35.7 mph N/A   Clear
3:56 PM 60.1 °F 28.9 °F 31% 29.87 in 10.0 mi SW 24.2 mph 36.8 mph N/A   Clear
4:56 PM 60.1 °F 30.0 °F 32% 29.87 in 10.0 mi SSW 27.6 mph 35.7 mph N/A   Clear
5:56 PM 60.1 °F 28.9 °F 31% 29.89 in 10.0 mi SSW 25.3 mph 35.7 mph N/A   Clear
6:56 PM 60.1 °F 28.0 °F 30% 29.91 in 10.0 mi SW 10.4 mph - N/A   Clear
7:56 PM 57.9 °F 28.9 °F 33% 29.91 in 10.0 mi SSW 16.1 mph 25.3 mph N/A   Clear
8:56 PM 55.0 °F 28.0 °F 35% 29.93 in 10.0 mi SSW 13.8 mph - N/A   Clear
9:56 PM 54.0 °F 28.9 °F 38% 29.93 in 10.0 mi SSW 16.1 mph - N/A   Clear
10:56 PM 54.0 °F 30.0 °F 40% 29.94 in 10.0 mi SSW 10.4 mph - N/A   Clear
11:56 PM 54.0 °F 30.0 °F 40% 29.94 in 10.0 mi SSW 11.5 mph - N/A   Clear